[[{"header":{"parameterUnit":"m.s-1","parameterCategory":1,"la1":30.2991,"la2":30.254,"lo1":-89.0895,"lo2":-89.0444,"dy":0.0017,"dx":0.0017,"nx":28,"ny":28,"refTime":"2025-04-17T03:00:00:Z","depth":0,"parameterNumber":2,"parameterNumberName":"U-component_of_WINDS"},"data":[0,0,0,0,0,0,0,0,0,0,0,0,0,0,0,0,0,0,0,0,0,0,0,0,0,0,0,0,0,0,0,0,0,0,0,0,0,0,0,0,0,0,0,0,0,0,0,0,0,0,0,0,0,0,0,0,0,0,-2.3807,-2.3807,0,-2.3829,-2.3829,-2.383,-2.3817,-2.3816,-2.3815,-2.3815,-2.3838,-2.3839,-2.3841,0,0,0,0,0,0,0,0,0,0,0,0,0,-2.3753,-2.3754,-2.3807,-2.3807,-2.3807,-2.3829,-2.3829,-2.383,-2.3817,-2.3816,-2.3815,-2.3814,-2.3838,-2.3839,-2.3841,0,0,0,0,0,0,0,0,0,0,0,0,0,-2.3776,-2.3755,-2.3807,-2.3803,-2.3803,-2.3829,-2.383,-2.383,-2.3817,-2.3816,-2.3815,-2.3814,-2.3837,-2.3839,-2.3841,-2.3871,0,0,-2.3847,-2.3847,0,0,0,0,0,0,0,0,-2.3775,-2.3778,-2.3804,-2.3804,-2.3804,-2.3819,-2.3819,-2.3844,-2.3817,-2.3812,-2.3815,-2.3814,-2.3833,-2.3835,-2.3841,-2.3873,-2.3874,-2.3847,-2.3848,-2.3849,-2.3849,0,0,0,0,0,0,0,-2.3773,-2.3777,-2.3816,-2.3804,-2.3804,-2.3801,-2.3803,-2.3824,-2.3827,-2.3812,-2.3811,-2.3814,-2.3832,-2.3839,-2.3842,-2.3874,-2.3847,-2.3848,-2.3849,-2.385,-2.3932,-2.3933,0,0,0,0,0,0,-2.3772,-2.3776,-2.3815,-2.3816,-2.3787,-2.3803,-2.3805,-2.3815,-2.3827,-2.3828,-2.3815,-2.3813,-2.3837,-2.384,-2.3842,-2.3879,-2.3849,-2.385,-2.3851,-2.3931,-2.3932,-2.3933,0,0,0,0,0,0,-2.3771,-2.3775,-2.3814,-2.3796,-2.3801,-2.3805,-2.3816,-2.3816,-2.3823,-2.3829,-2.383,-2.3821,-2.3836,-2.384,-2.3864,-2.3879,-2.3851,-2.3853,-2.3929,-2.3931,-2.3933,-2.3951,0,0,0,0,0,0,-2.3769,-2.3775,-2.3786,-2.3796,-2.3802,-2.3835,-2.3817,-2.3817,-2.3826,-2.3824,-2.3835,-2.3836,-2.3836,-2.3862,-2.3866,-2.3881,-2.3854,-2.3928,-2.393,-2.3932,-2.3949,-2.3953,-2.3957,0,0,0,0,0,-2.3767,-2.3791,-2.3787,-2.3792,-2.3816,-2.3836,-2.3839,-2.3838,-2.3827,-2.3839,-2.3843,-2.3836,-2.3877,-2.3864,-2.3869,-2.3885,-2.3927,-2.393,-2.3932,-2.3948,-2.3953,-2.3957,0,0,0,0,0,0,-2.3783,-2.3792,-2.3788,-2.3815,-2.3825,-2.3834,-2.3848,-2.3843,-2.3856,-2.3854,-2.3852,-2.3855,-2.388,-2.3886,-2.3871,-2.3915,-2.3901,-2.3904,-2.3911,-2.3916,-2.3919,-2.3917,-2.3856,0,0,0,0,0,-2.3789,-2.3805,-2.3812,-2.3836,-2.3841,-2.3844,-2.3853,-2.3851,-2.3861,-2.3865,-2.3871,-2.3881,-2.3897,-2.3907,-2.3921,-2.3951,-2.3953,-2.3964,-2.3968,-2.3971,-2.3974,-2.399,-2.3995,-2.3941,-2.3941,-2.3941,0,0,-2.3803,-2.381,-2.382,-2.3839,-2.3846,-2.3862,-2.3847,-2.3865,-2.3877,-2.3868,-2.3891,-2.3896,-2.3907,-2.3935,-2.3947,-2.394,-2.3989,-2.3974,-2.3976,-2.3977,-2.3993,-2.3998,-2.4002,-2.3943,-2.3942,-2.3942,0,0,-2.3836,-2.3843,-2.3863,-2.3871,-2.3882,-2.3884,-2.3889,-2.3899,-2.3902,-2.3925,-2.3919,-2.3934,-2.396,-2.3968,-2.3976,-2.4014,-2.4007,-2.4018,-2.4037,-2.4053,-2.4057,-2.4061,-2.4074,-2.4078,-2.4021,-2.4021,-2.4021,0,-2.3851,-2.3875,-2.3874,-2.3892,-2.3901,-2.3894,-2.3914,-2.3922,-2.3938,-2.3944,-2.3936,-2.3969,-2.3976,-2.4005,-2.4015,-2.4021,-2.4027,-2.4016,-2.4057,-2.406,-2.4064,-2.4076,-2.4081,-2.4023,-2.4022,-2.4022,-2.4022,0,-2.3893,-2.391,-2.3925,-2.394,-2.3951,-2.397,-2.3972,-2.3983,-2.3981,-2.3984,-2.4009,-2.4017,-2.4033,-2.4041,-2.4039,-2.407,-2.4065,-2.4057,-2.4041,-2.407,-2.4082,-2.4086,-2.4024,-2.4024,-2.4024,-2.4023,0,0,-2.3935,-2.395,-2.3955,-2.3962,-2.3975,-2.3988,-2.4007,-2.4023,-2.4032,-2.4044,-2.406,-2.4083,-2.4076,-2.4085,-2.4084,-2.4098,-2.4127,-2.4089,-2.4089,-2.4095,-2.4161,-2.4166,-2.4171,-2.4124,-2.4125,-2.4125,-2.416,0,-2.3968,-2.4001,-2.4001,-2.4032,-2.4048,-2.4042,-2.4059,-2.4069,-2.4072,-2.4086,-2.4091,-2.4107,-2.4097,-2.4102,-2.4116,-2.4121,-2.414,-2.4118,-2.4138,-2.4139,-2.4134,-2.4178,-2.4183,-2.4215,-2.4164,-2.4165,-2.4166,0,-2.401,-2.4023,-2.4055,-2.4066,-2.4072,-2.4088,-2.4102,-2.4116,-2.4127,-2.4129,-2.414,-2.4137,-2.4157,-2.4143,-2.417,-2.4156,-2.4164,-2.4168,-2.4169,-2.417,-2.4153,-2.4179,-2.4225,-2.423,-2.4173,-2.4172,-2.4172,0,-2.4037,-2.4062,-2.4085,-2.4091,-2.4104,-2.4115,-2.4121,-2.4131,-2.4141,-2.4154,-2.416,-2.4176,-2.4184,-2.4196,-2.4198,-2.4188,-2.4226,-2.4212,-2.4228,-2.4228,-2.4235,-2.4235,-2.4283,-2.4243,-2.4243,-2.4243,-2.4243,0,-2.4073,-2.4093,-2.4096,-2.411,-2.4133,-2.4133,-2.4155,-2.4161,-2.417,-2.4185,-2.4182,-2.4196,-2.4198,-2.4213,-2.4215,-2.4237,-2.4241,-2.4243,-2.4243,-2.4243,-2.4243,-2.4248,-2.4245,-2.4244,-2.4244,-2.4243,-2.4243,0,-2.4105,-2.4109,-2.4133,-2.4144,-2.4147,-2.4163,-2.4172,-2.4185,-2.4189,-2.4208,-2.4213,-2.4219,-2.4236,-2.424,-2.4261,-2.4262,-2.4289,-2.4287,-2.4285,-2.4284,-2.43,-2.4298,-2.4352,-2.4359,-2.4315,-2.4316,-2.4316,0,-2.4128,-2.4143,-2.4155,-2.4165,-2.4171,-2.4187,-2.4197,-2.4198,-2.4209,-2.4223,-2.4235,-2.4252,-2.4266,-2.4294,-2.43,-2.4316,-2.4315,-2.4333,-2.4317,-2.4316,-2.4314,-2.4313,-2.4314,-2.4335,-2.4336,-2.4336,-2.4336,0,-2.4167,-2.4168,-2.4182,-2.4197,-2.4209,-2.4221,-2.4232,-2.424,-2.4243,-2.4255,-2.4273,-2.4284,-2.4305,-2.4322,-2.4338,-2.4345,-2.4341,-2.4341,-2.4346,-2.4345,-2.4343,-2.4344,-2.4292,-2.434,-2.4339,-2.4339,-2.4339,-2.4339,-2.4195,-2.4208,-2.4218,-2.4234,-2.4243,-2.4254,-2.4267,-2.4272,-2.4287,-2.4304,-2.4305,-2.4324,-2.4336,-2.4357,-2.4365,-2.438,-2.4374,-2.4381,-2.4383,-2.4384,-2.4385,-2.4341,-2.4383,-2.4383,-2.4383,-2.4383,-2.4383,0,-2.4233,-2.424,-2.4254,-2.427,-2.4283,-2.4279,-2.4291,-2.4302,-2.4319,-2.433,-2.4344,-2.4364,-2.4381,-2.4389,-2.4406,-2.4416,-2.4415,-2.4421,-2.4419,-2.4421,-2.439,-2.4384,-2.4421,-2.4421,-2.4421,-2.4421,-2.4421,-2.4421,-2.4254,-2.4276,-2.4279,-2.4305,-2.4312,-2.433,-2.4338,-2.4348,-2.4357,-2.438,-2.4393,-2.4399,-2.4409,-2.4426,-2.4441,-2.4443,-2.4449,-2.4455,-2.4457,-2.4427,-2.4423,-2.4419,-2.4414,-2.4457,-2.4457,-2.4486,-2.4487,-2.4487]},{"header":{"parameterUnit":"m.s-1","parameterCategory":1,"la1":30.2991,"la2":30.254,"lo1":-89.0895,"lo2":-89.0444,"dy":0.0017,"dx":0.0017,"nx":28,"ny":28,"refTime":"2025-04-17T03:00:00:Z","depth":0,"parameterNumber":3,"parameterNumberName":"V-component_of_WINDS"},"data":[0,0,0,0,0,0,0,0,0,0,0,0,0,0,0,0,0,0,0,0,0,0,0,0,0,0,0,0,0,0,0,0,0,0,0,0,0,0,0,0,0,0,0,0,0,0,0,0,0,0,0,0,0,0,0,0,0,0,5.5216,5.5217,0,5.5234,5.5234,5.5235,5.5171,5.5169,5.5168,5.5166,5.5181,5.5183,5.5185,0,0,0,0,0,0,0,0,0,0,0,0,0,5.5125,5.5127,5.5216,5.5217,5.5217,5.5234,5.5234,5.5235,5.5172,5.5169,5.5167,5.5165,5.518,5.5183,5.5186,0,0,0,0,0,0,0,0,0,0,0,0,0,5.5156,5.5128,5.5216,5.5188,5.5185,5.5234,5.5234,5.5235,5.5172,5.5169,5.5167,5.5164,5.518,5.5183,5.5186,5.5262,0,0,5.5196,5.5197,0,0,0,0,0,0,0,0,5.5154,5.5159,5.5192,5.519,5.5187,5.5198,5.5208,5.5244,5.5173,5.5177,5.5166,5.5163,5.5189,5.5191,5.52,5.5263,5.5264,5.5196,5.5198,5.5199,5.52,0,0,0,0,0,0,0,5.5152,5.5158,5.5223,5.5192,5.5189,5.5173,5.5174,5.5214,5.5198,5.5176,5.5172,5.5175,5.5187,5.5197,5.52,5.5264,5.5196,5.5199,5.5201,5.5202,5.539,5.5393,0,0,0,0,0,0,5.5154,5.5157,5.5223,5.5224,5.5164,5.5177,5.5178,5.5197,5.5198,5.5195,5.5177,5.5172,5.5193,5.5197,5.5201,5.529,5.5199,5.5202,5.5204,5.5387,5.5391,5.5394,0,0,0,0,0,0,5.5153,5.5161,5.5222,5.5189,5.5196,5.5181,5.5203,5.5199,5.5209,5.5199,5.5195,5.5191,5.5191,5.5196,5.5248,5.529,5.5204,5.5207,5.5384,5.5388,5.5393,5.547,0,0,0,0,0,0,5.515,5.5161,5.519,5.519,5.5198,5.527,5.5206,5.5201,5.5216,5.5209,5.5211,5.5208,5.5189,5.5243,5.5251,5.5293,5.5209,5.538,5.5386,5.5391,5.5464,5.5477,5.5488,0,0,0,0,0,5.5147,5.521,5.5192,5.52,5.5235,5.5272,5.5276,5.5254,5.5219,5.5248,5.5241,5.5208,5.5284,5.5249,5.5257,5.5301,5.5377,5.5384,5.5391,5.5458,5.5474,5.5487,0,0,0,0,0,0,5.5214,5.521,5.5189,5.5255,5.5265,5.5262,5.5298,5.5272,5.5291,5.5283,5.5254,5.5255,5.5312,5.5311,5.5272,5.5375,5.5324,5.5333,5.5373,5.5388,5.54,5.5398,5.5212,0,0,0,0,0,5.5237,5.5269,5.5263,5.5321,5.5327,5.5312,5.5328,5.531,5.5318,5.5322,5.5318,5.5327,5.5353,5.537,5.5394,5.5464,5.5463,5.5497,5.5509,5.5519,5.5527,5.5564,5.5579,5.5417,5.5417,5.5417,0,0,5.5283,5.5285,5.5306,5.5335,5.534,5.5373,5.5316,5.5353,5.5377,5.5327,5.5376,5.5374,5.5382,5.5443,5.547,5.5444,5.5572,5.5528,5.5536,5.5538,5.5573,5.5588,5.5602,5.5421,5.5421,5.542,0,0,5.5384,5.5389,5.5438,5.5446,5.5455,5.5445,5.5457,5.5458,5.5455,5.5504,5.5468,5.5495,5.554,5.5547,5.5557,5.5663,5.5633,5.5671,5.5734,5.577,5.5783,5.5794,5.5831,5.5845,5.5679,5.5679,5.5679,0,5.544,5.549,5.5467,5.5507,5.552,5.5478,5.5527,5.5535,5.5551,5.5561,5.5532,5.5588,5.5591,5.5653,5.5679,5.5688,5.57,5.567,5.5783,5.5794,5.5804,5.5839,5.5853,5.5683,5.5683,5.5683,5.5682,0,5.5558,5.5593,5.5631,5.565,5.5667,5.5712,5.5694,5.5715,5.5696,5.5688,5.5739,5.574,5.5763,5.5776,5.5758,5.5836,5.582,5.5788,5.5737,5.5824,5.5857,5.587,5.569,5.5688,5.5687,5.5686,0,0,5.5701,5.5707,5.5721,5.5729,5.5737,5.5763,5.5806,5.5829,5.5847,5.586,5.5894,5.5934,5.5905,5.5916,5.5897,5.5929,5.6013,5.5893,5.5893,5.5915,5.6099,5.6123,5.6139,5.5993,5.5996,5.5998,5.6098,0,5.58,5.5874,5.5855,5.5928,5.5959,5.5921,5.5957,5.5966,5.596,5.5986,5.5979,5.6007,5.5966,5.5973,5.6003,5.5996,5.6049,5.5989,5.6024,5.6025,5.6023,5.6156,5.6181,5.6275,5.611,5.6113,5.6114,0,5.5926,5.5945,5.6022,5.6025,5.6038,5.6071,5.6092,5.6117,5.6125,5.6119,5.6132,5.6108,5.6149,5.6098,5.6154,5.6114,5.6127,5.6126,5.6129,5.6131,5.6075,5.616,5.6305,5.6319,5.6134,5.6132,5.6131,0,5.6022,5.6067,5.6119,5.6127,5.6132,5.6157,5.616,5.6166,5.6181,5.6199,5.6208,5.623,5.6242,5.6259,5.6241,5.6206,5.6299,5.6247,5.6294,5.6295,5.6315,5.6314,5.6463,5.6325,5.6325,5.6325,5.6324,0,5.6134,5.6183,5.6162,5.6194,5.6247,5.6224,5.6277,5.6275,5.6281,5.6311,5.6279,5.6307,5.6282,5.6309,5.6295,5.6343,5.6348,5.6344,5.6339,5.6346,5.6347,5.6354,5.6347,5.6328,5.6328,5.6327,5.6326,0,5.625,5.6238,5.6292,5.6294,5.6295,5.6334,5.6334,5.6363,5.6356,5.6394,5.6402,5.639,5.6419,5.6403,5.6433,5.6424,5.6486,5.6473,5.6484,5.648,5.6528,5.6523,5.6686,5.6706,5.6556,5.6558,5.6559,0,5.6323,5.6359,5.6365,5.6383,5.6389,5.6419,5.6435,5.6414,5.6432,5.6446,5.6473,5.65,5.652,5.6569,5.6562,5.6585,5.6572,5.6627,5.6575,5.6581,5.6572,5.657,5.6573,5.6638,5.6639,5.6641,5.6642,0,5.6452,5.6445,5.647,5.6493,5.6514,5.6531,5.6545,5.6562,5.6541,5.6563,5.6593,5.6609,5.6641,5.6668,5.6687,5.6689,5.6662,5.6659,5.6671,5.6678,5.6682,5.668,5.6512,5.6655,5.6654,5.6653,5.6652,5.6651,5.6548,5.6579,5.6588,5.6617,5.6626,5.664,5.6668,5.6664,5.6689,5.6714,5.67,5.6736,5.6743,5.6767,5.6773,5.68,5.6778,5.6795,5.6799,5.6804,5.681,5.6679,5.6804,5.6803,5.6803,5.6803,5.6802,0,5.6675,5.668,5.6707,5.6729,5.6752,5.6726,5.674,5.676,5.6793,5.6803,5.6824,5.6859,5.6885,5.6881,5.6905,5.6927,5.6915,5.6934,5.6932,5.6933,5.6829,5.6816,5.6943,5.6943,5.6943,5.6943,5.6943,5.6943,5.6745,5.6795,5.6789,5.6844,5.6847,5.6883,5.6893,5.6906,5.6914,5.6955,5.6977,5.6975,5.6979,5.7003,5.7026,5.7024,5.7034,5.7057,5.705,5.6954,5.694,5.6926,5.6914,5.7059,5.706,5.7151,5.7152,5.7153]}]]